Location: Caltech
(34.1382°N, 118.1253°W)
Time: 11:33:32
(UTC-07:00)

Gbstr 26 Del rocket - Visible Passes

Search period start: 30 April 2017 00:00
Search period end: 10 May 2017 00:00
Orbit: 494 x 1265 km, 51.8° (Epoch: 28 April)

Date Brightness Start Highest point End Pass type
(mag) Time Alt. Az. Time Alt. Az. Time Alt. Az.
30 Apr 6.1 00:12:32 10° W 00:19:22 30° NNW 00:26:14 10° NE visible
30 Apr 6.6 02:03:27 10° NW 02:09:15 21° N 02:14:45 10° NE visible
30 Apr 6.0 03:52:15 10° NW 03:59:01 30° NNE 04:05:00 10° E visible
30 Apr 4.9 20:32:47 10° S 20:39:11 35° SE 20:46:17 10° ENE visible
30 Apr 4.8 22:18:51 10° WSW 22:26:23 64° NW 22:34:30 10° NE visible
01 May 6.2 00:08:42 10° WNW 00:15:18 27° NNW 00:21:56 10° NE visible
01 May 6.6 01:59:25 10° NW 02:05:17 21° N 02:10:50 10° NE visible
01 May 5.8 03:47:52 10° NW 03:54:55 34° NNE 04:01:06 10° E visible
01 May 4.1 05:35:31 10° NW 05:43:00 76° SW 05:49:09 10° SE visible
01 May 4.7 20:28:00 10° SSW 20:34:42 44° SE 20:42:10 10° ENE visible
01 May 5.1 22:14:43 10° WSW 22:22:08 55° NW 22:30:07 10° NE visible
02 May 6.4 00:04:52 10° WNW 00:11:16 25° NNW 00:17:40 10° NE visible
02 May 6.5 01:55:20 10° NW 02:01:18 22° N 02:06:57 10° NE visible
02 May 5.6 03:43:30 10° NW 03:50:47 39° NNE 03:57:09 10° E visible
02 May 4.2 05:31:14 10° NW 05:38:37 62° SW 05:44:42 10° SSE visible
02 May 4.5 20:23:21 10° SSW 20:30:13 53° SE 20:37:58 10° NE visible
02 May 5.4 22:10:38 10° WSW 22:17:55 47° NNW 22:25:45 10° NE visible
03 May 6.5 00:01:03 10° WNW 00:07:15 24° NNW 00:13:27 10° NE visible
03 May 6.5 01:51:10 10° NW 01:57:19 23° N 02:03:06 10° ENE visible
03 May 5.3 03:39:06 10° NW 03:46:39 45° NNE 03:53:08 10° ESE visible
03 May 4.3 05:27:00 10° NW 05:34:10 50° SW 05:40:10 10° SSE visible
03 May 4.4 20:18:49 10° SSW 20:25:47 65° SE 20:33:44 10° NE visible
03 May 5.6 22:06:38 10° W 22:13:44 41° NNW 22:21:22 10° NE visible
03 May 6.6 23:57:12 10° WNW 00:03:15 22° N 00:09:17 10° NE visible
04 May 6.4 01:46:57 10° NW 01:53:18 24° NNE 01:59:17 10° ENE visible
04 May 5.0 03:34:43 10° NW 03:42:27 53° NE 03:49:04 10° ESE visible
04 May 4.5 05:22:49 10° WNW 05:29:42 40° SW 05:35:31 10° SSE visible
04 May 4.4 20:14:21 10° SW 20:21:23 78° SE 20:29:26 10° NE visible
04 May 5.9 22:02:40 10° W 22:09:35 36° NNW 22:16:59 10° NE visible
04 May 6.6 23:53:19 10° NW 23:59:16 22° N 00:05:11 10° NE visible
05 May 6.3 01:42:41 10° NW 01:49:17 26° NNE 01:55:26 10° ENE visible
05 May 4.7 03:30:20 10° NW 03:38:12 63° NE 03:44:57 10° ESE visible
05 May 4.8 05:18:43 10° WNW 05:25:11 32° WSW 05:30:44 10° S visible
05 May 4.5 20:10:00 10° SW 20:17:01 88° NW 20:25:06 10° NE visible
05 May 6.1 21:58:45 10° W 22:05:28 33° NNW 22:12:38 10° NE visible
05 May 6.6 23:49:24 10° NW 23:55:17 21° N 00:01:08 10° NE visible
06 May 6.1 01:38:22 10° NW 01:45:13 29° NNE 01:51:35 10° ENE visible
06 May 4.4 03:25:57 10° NW 03:33:55 74° NE 03:40:45 10° SE visible
06 May 5.0 05:14:44 10° WNW 05:20:38 26° WSW 05:25:48 10° S visible
06 May 4.7 20:05:42 10° SW 20:12:41 75° NW 20:20:45 10° NE visible
06 May 6.2 21:54:53 10° W 22:01:23 29° NNW 22:08:18 10° NE visible
06 May 6.6 23:45:26 10° NW 23:51:19 21° N 23:57:09 10° NE visible
07 May 5.9 01:34:02 10° NW 01:41:09 32° NNE 01:47:44 10° E visible
07 May 4.2 03:21:36 10° NW 03:29:37 87° NE 03:36:28 10° SE visible
07 May 5.3 05:10:55 10° WNW 05:16:03 20° WSW 05:20:40 10° SSW visible
07 May 5.0 20:01:29 10° WSW 20:08:25 64° NW 20:16:23 10° NE visible
07 May 6.4 21:51:02 10° WNW 21:57:20 27° NNW 22:04:00 10° NE visible
07 May 6.6 23:41:24 10° NW 23:47:20 22° N 23:53:14 10° NE visible
08 May 5.7 01:29:41 10° NW 01:37:02 36° NNE 01:43:49 10° E visible
08 May 4.2 03:17:16 10° NW 03:25:15 79° SW 03:32:06 10° SE visible
08 May 5.5 05:07:23 10° W 05:11:28 16° WSW 05:15:14 10° SSW visible
08 May 5.3 19:57:21 10° WSW 20:04:10 54° NW 20:12:00 10° NE visible
08 May 6.5 21:47:11 10° WNW 21:53:18 25° NNW 21:59:43 10° NE visible
08 May 6.5 23:37:18 10° NW 23:43:21 22° N 23:49:21 10° ENE visible
09 May 5.5 01:25:19 10° NW 01:32:54 41° NNE 01:39:52 10° E visible
09 May 4.2 03:12:58 10° NW 03:20:51 66° SW 03:27:39 10° SSE visible
09 May 5.8 05:04:29 10° W 05:09:52 - SW 05:05:57 11° WSW visible
09 May 6.5 21:43:21 10° WNW 21:49:17 23° N 21:55:30 10° NE visible
09 May 6.4 23:33:08 10° NW 23:39:21 23° NNE 23:45:29 10° ENE visible
